Total_Precipitation_Accumulation
0.25 0.54 1.10 1.28 1.27 0.85 0.50 0.33 0.26 0.25 0.20 0.15 0.08 0.08 0.19 0.36 0.55 0.74 0.74 0.58 0.39 0.30 0.22 0.27 0.36 0.30 0.26 0.27 0.35 0.42 0.44 0.47 0.51 0.53 0.53 0.31 0.18 0.17 0.17 0.19 0.21 0.23 0.19 0.21 0.28 0.33 0.32 0.27 0.30
0.34 0.97 1.52 1.70 1.28 0.56 0.44 0.37 0.36 0.29 0.16 0.12 0.06 0.07 0.15 0.14 0.13 0.38 0.78 0.81 0.41 0.33 0.30 0.37 0.46 0.39 0.33 0.35 0.45 0.53 0.59 0.62 0.68 0.66 0.49 0.26 0.20 0.21 0.21 0.24 0.27 0.23 0.16 0.16 0.20 0.26 0.27 0.24 0.29
0.54 1.11 1.47 1.60 0.79 0.48 0.49 0.46 0.42 0.22 0.11 0.10 0.07 0.05 0.10 0.18 0.25 0.42 0.73 0.54 0.34 0.34 0.41 0.55 0.58 0.50 0.45 0.45 0.53 0.65 0.73 0.72 0.75 0.70 0.45 0.30 0.26 0.24 0.26 0.30 0.26 0.18 0.15 0.13 0.14 0.18 0.19 0.19 0.20
0.72 1.17 1.39 1.06 0.63 0.44 0.43 0.45 0.25 0.16 0.08 0.04 0.05 0.06 0.11 0.21 0.30 0.38 0.46 0.41 0.34 0.31 0.35 0.47 0.57 0.52 0.51 0.57 0.63 0.65 0.60 0.61 0.69 0.61 0.46 0.33 0.33 0.32 0.33 0.27 0.18 0.15 0.15 0.13 0.12 0.14 0.14 0.15 0.14
0.84 1.23 1.23 0.85 0.61 0.49 0.35 0.29 0.16 0.11 0.09 0.07 0.04 0.11 0.17 0.25 0.37 0.46 0.53 0.52 0.46 0.40 0.36 0.44 0.52 0.48 0.48 0.58 0.66 0.67 0.57 0.61 0.65 0.62 0.55 0.38 0.36 0.36 0.35 0.26 0.19 0.17 0.16 0.14 0.13 0.12 0.10 0.10 0.12
1.01 1.29 1.26 0.95 0.61 0.52 0.41 0.27 0.17 0.13 0.09 0.09 0.10 0.16 0.23 0.29 0.40 0.52 0.56 0.61 0.61 0.55 0.49 0.46 0.53 0.50 0.50 0.56 0.64 0.66 0.64 0.70 0.67 0.55 0.50 0.47 0.38 0.36 0.32 0.25 0.22 0.19 0.19 0.20 0.15 0.10 0.09 0.10 0.13
1.12 1.27 1.11 0.74 0.63 0.67 0.52 0.29 0.18 0.15 0.11 0.11 0.13 0.19 0.27 0.35 0.37 0.45 0.52 0.60 0.66 0.65 0.61 0.56 0.56 0.57 0.59 0.68 0.68 0.71 0.77 0.86 0.82 0.61 0.52 0.53 0.41 0.32 0.28 0.26 0.23 0.20 0.21 0.23 0.18 0.12 0.10 0.11 0.14
0.65 0.94 1.11 0.97 0.82 0.86 0.52 0.28 0.13 0.08 0.06 0.06 0.08 0.16 0.26 0.35 0.35 0.48 0.57 0.63 0.66 0.64 0.62 0.56 0.57 0.61 0.65 0.74 0.78 0.79 0.79 0.86 0.84 0.71 0.66 0.64 0.47 0.35 0.31 0.28 0.29 0.28 0.27 0.29 0.24 0.18 0.15 0.13 0.13
0.54 0.79 1.20 1.21 0.79 0.66 0.37 0.29 0.12 0.07 0.06 0.06 0.06 0.09 0.18 0.22 0.27 0.42 0.53 0.56 0.58 0.58 0.61 0.58 0.56 0.60 0.66 0.76 0.78 0.87 0.88 0.91 0.84 0.76 0.79 0.69 0.49 0.44 0.43 0.35 0.38 0.40 0.44 0.39 0.33 0.27 0.20 0.13 0.10
0.63 0.84 0.99 0.83 0.50 0.37 0.38 0.35 0.15 0.13 0.12 0.09 0.10 0.13 0.23 0.30 0.35 0.46 0.52 0.58 0.59 0.61 0.64 0.62 0.65 0.64 0.64 0.68 0.93 1.09 0.97 0.88 0.77 0.79 0.76 0.72 0.67 0.64 0.46 0.44 0.50 0.50 0.50 0.46 0.39 0.35 0.22 0.11 0.06
0.53 0.61 0.53 0.49 0.34 0.26 0.26 0.22 0.17 0.17 0.18 0.14 0.15 0.19 0.26 0.37 0.42 0.44 0.50 0.58 0.63 0.63 0.65 0.61 0.59 0.54 0.55 0.69 0.87 1.05 1.10 1.07 1.04 0.90 0.89 0.84 0.74 0.62 0.46 0.43 0.45 0.45 0.45 0.41 0.42 0.37 0.22 0.14 0.10
0.52 0.43 0.42 0.39 0.26 0.24 0.20 0.17 0.18 0.18 0.19 0.17 0.19 0.23 0.26 0.34 0.41 0.45 0.49 0.52 0.53 0.55 0.58 0.55 0.53 0.51 0.49 0.50 0.61 0.76 0.83 0.82 0.84 0.85 0.79 0.80 0.80 0.72 0.60 0.54 0.57 0.57 0.51 0.50 0.51 0.44 0.32 0.24 0.18
0.62 0.45 0.31 0.26 0.24 0.24 0.22 0.20 0.19 0.19 0.17 0.18 0.23 0.29 0.33 0.37 0.40 0.43 0.43 0.46 0.47 0.48 0.51 0.55 0.58 0.55 0.61 0.60 0.57 0.56 0.62 0.67 0.72 0.79 0.72 0.66 0.69 0.71 0.72 0.64 0.67 0.63 0.60 0.58 0.54 0.39 0.34 0.33 0.24
0.53 0.40 0.33 0.28 0.27 0.25 0.24 0.23 0.20 0.21 0.19 0.19 0.25 0.32 0.37 0.40 0.40 0.39 0.39 0.37 0.37 0.46 0.57 0.62 0.58 0.61 0.60 0.56 0.59 0.62 0.62 0.65 0.68 0.72 0.65 0.59 0.59 0.61 0.71 0.68 0.71 0.62 0.63 0.68 0.59 0.49 0.46 0.40 0.29
0.32 0.35 0.38 0.32 0.33 0.31 0.29 0.27 0.21 0.23 0.21 0.23 0.27 0.33 0.38 0.41 0.41 0.42 0.42 0.38 0.36 0.43 0.57 0.68 0.66 0.69 0.65 0.60 0.63 0.66 0.65 0.62 0.65 0.69 0.62 0.57 0.60 0.61 0.72 0.75 0.72 0.68 0.70 0.70 0.71 0.67 0.58 0.46 0.35
0.35 0.45 0.60 0.47 0.45 0.40 0.34 0.37 0.28 0.31 0.27 0.26 0.26 0.29 0.33 0.35 0.37 0.39 0.40 0.39 0.37 0.40 0.51 0.63 0.65 0.70 0.73 0.72 0.72 0.69 0.65 0.66 0.71 0.74 0.70 0.65 0.63 0.66 0.84 0.89 0.77 0.81 0.87 0.86 0.85 0.79 0.70 0.57 0.48
0.48 0.59 0.63 0.53 0.42 0.37 0.36 0.36 0.29 0.29 0.27 0.25 0.23 0.22 0.23 0.25 0.31 0.34 0.35 0.35 0.36 0.40 0.47 0.52 0.58 0.78 0.81 0.77 0.83 0.83 0.80 0.85 0.89 0.91 0.89 0.83 0.80 0.88 1.04 1.10 1.01 0.98 1.09 1.02 0.90 0.88 0.87 0.75 0.68
0.43 0.38 0.37 0.38 0.29 0.28 0.33 0.28 0.25 0.26 0.23 0.22 0.20 0.19 0.18 0.19 0.24 0.26 0.25 0.26 0.28 0.34 0.39 0.46 0.55 0.67 0.79 0.94 1.02 1.10 1.11 1.11 1.22 1.30 1.28 1.11 1.06 1.12 1.26 1.35 1.31 1.26 1.34 1.31 1.14 1.19 1.17 1.02 0.98
0.30 0.22 0.22 0.25 0.21 0.21 0.24 0.23 0.21 0.20 0.20 0.18 0.16 0.15 0.14 0.12 0.14 0.14 0.13 0.17 0.20 0.25 0.31 0.37 0.54 0.70 0.86 0.98 1.12 1.38 1.54 1.64 1.62 1.63 1.70 1.62 1.43 1.49 1.60 1.56 1.77 1.82 1.77 1.76 1.67 1.72 1.71 1.42 1.20
0.22 0.19 0.20 0.19 0.16 0.14 0.14 0.14 0.13 0.13 0.15 0.15 0.15 0.13 0.11 0.09 0.07 0.06 0.07 0.09 0.12 0.16 0.22 0.30 0.44 0.67 0.92 1.14 1.33 1.52 1.83 1.99 1.99 2.05 2.00 1.95 1.83 1.82 1.74 1.79 2.00 2.04 2.13 2.21 2.03 2.08 2.10 1.77 1.44
0.17 0.16 0.16 0.14 0.12 0.10 0.09 0.10 0.10 0.11 0.12 0.12 0.11 0.11 0.10 0.08 0.07 0.06 0.05 0.06 0.07 0.09 0.14 0.21 0.34 0.57 0.88 1.19 1.44 1.63 1.87 2.14 2.23 2.13 2.09 2.12 2.19 2.22 2.10 2.05 2.15 2.16 2.21 2.35 2.38 2.31 2.31 2.16 1.84
0.19 0.13 0.12 0.11 0.11 0.11 0.10 0.16 0.15 0.15 0.16 0.14 0.13 0.13 0.12 0.11 0.10 0.08 0.06 0.06 0.07 0.10 0.13 0.17 0.32 0.48 0.72 0.99 1.31 1.57 1.83 2.14 2.22 2.19 2.16 2.20 2.31 2.39 2.34 2.28 2.32 2.30 2.23 2.28 2.37 2.36 2.49 2.59 2.27
0.12 0.07 0.06 0.07 0.09 0.09 0.09 0.16 0.17 0.16 0.20 0.20 0.20 0.21 0.18 0.15 0.15 0.12 0.10 0.10 0.12 0.15 0.18 0.24 0.38 0.53 0.74 0.98 1.30 1.62 1.81 1.98 2.17 2.19 2.10 2.03 2.08 2.09 2.08 2.18 2.30 2.29 2.26 2.24 2.39 2.51 2.64 2.58 2.46
0.04 0.04 0.04 0.04 0.06 0.06 0.05 0.14 0.23 0.23 0.22 0.20 0.22 0.22 0.17 0.14 0.14 0.17 0.21 0.22 0.22 0.24 0.30 0.38 0.50 0.71 0.87 0.97 1.11 1.28 1.49 1.77 1.91 2.00 2.04 2.04 2.00 1.86 1.81 1.90 1.99 2.07 2.11 2.10 2.12 2.25 2.38 2.50 2.59
0.02 0.06 0.10 0.11 0.13 0.12 0.10 0.20 0.31 0.27 0.22 0.21 0.22 0.20 0.19 0.21 0.25 0.33 0.43 0.40 0.37 0.40 0.49 0.56 0.63 0.73 0.79 0.78 0.86 0.99 1.15 1.36 1.50 1.60 1.79 1.85 1.87 1.79 1.73 1.69 1.76 1.85 1.87 1.98 2.13 2.08 2.08 2.21 2.37
0.01 0.05 0.12 0.16 0.18 0.21 0.26 0.40 0.44 0.35 0.28 0.24 0.21 0.19 0.21 0.29 0.39 0.54 0.65 0.70 0.64 0.62 0.64 0.62 0.63 0.60 0.61 0.66 0.73 0.80 0.86 1.00 1.12 1.20 1.36 1.48 1.47 1.43 1.38 1.41 1.50 1.68 1.78 1.86 1.96 1.96 1.93 1.97 2.03
0.02 0.03 0.06 0.14 0.15 0.21 0.34 0.51 0.51 0.35 0.29 0.27 0.26 0.23 0.29 0.42 0.57 0.73 0.86 0.93 0.87 0.78 0.72 0.68 0.68 0.65 0.58 0.60 0.68 0.74 0.79 0.80 0.84 0.88 0.88 0.96 1.04 1.05 1.08 1.12 1.25 1.42 1.56 1.62 1.68 1.78 1.81 1.83 1.81
0.02 0.04 0.10 0.22 0.33 0.36 0.39 0.52 0.60 0.49 0.38 0.36 0.38 0.44 0.55 0.73 0.80 0.91 0.98 0.97 0.96 1.00 0.93 0.77 0.71 0.71 0.66 0.73 0.74 0.72 0.70 0.68 0.67 0.70 0.76 0.77 0.85 0.95 1.02 1.03 1.09 1.18 1.28 1.39 1.53 1.62 1.69 1.66 1.61
0.09 0.13 0.20 0.32 0.42 0.56 0.68 0.82 0.69 0.57 0.56 0.54 0.56 0.72 0.82 0.92 1.00 1.02 1.08 1.01 0.89 0.89 0.87 0.84 0.79 0.73 0.75 0.80 0.80 0.70 0.67 0.67 0.67 0.65 0.67 0.74 0.83 0.93 0.96 1.01 1.05 1.06 1.15 1.20 1.29 1.39 1.50 1.47 1.45
0.23 0.35 0.45 0.61 0.65 0.63 0.86 1.06 0.78 0.64 0.65 0.66 0.65 0.63 0.65 0.83 0.94 0.98 1.04 0.97 0.81 0.77 0.68 0.71 0.79 0.79 0.85 0.86 0.79 0.71 0.71 0.74 0.79 0.77 0.69 0.70 0.76 0.78 0.88 0.98 0.97 0.97 1.03 1.11 1.19 1.27 1.30 1.31 1.25